This is the latest recevied weather packets stored in our database for station/object KM4KBD. If no packets are shown the sender has not sent any weather packets the latest 10 day(s).
| Time | Temp. | Humidity | Pressure | Rain* | Wind** | Luminosity | Snow |
|---|---|---|---|---|---|---|---|
| 1777651070 | 16.11° C | 52% | 1019.6 hPa | 0 mm | - | 328 W/m² | - |
| 1777650767 | 16.67° C | 52% | 1019.8 hPa | 0 mm | - | 373 W/m² | - |
| 1777650463 | 16.67° C | 49% | 1019.8 hPa | 0 mm | - | 678 W/m² | - |
| 1777650160 | 16.67° C | 51% | 1019.9 hPa | 0 mm | - | 714 W/m² | - |
| 1777649858 | 17.22° C | 54% | 1019.8 hPa | 0 mm | - | 649 W/m² | - |
| 1777649556 | 16.67° C | 52% | 1019.7 hPa | 0 mm | - | 778 W/m² | - |
| 1777649252 | 16.67° C | 54% | 1019.7 hPa | 0 mm | - | 709 W/m² | - |
| 1777648948 | 16.11° C | 52% | 1019.8 hPa | 0 mm | - | 731 W/m² | - |
| 1777648646 | 16.11° C | 52% | 1019.6 hPa | 0 mm | - | 634 W/m² | - |
| 1777648342 | 15.56° C | 53% | 1019.5 hPa | 0 mm | - | 619 W/m² | - |
| 1777648039 | 15.56° C | 51% | 1019.6 hPa | 0 mm | - | 609 W/m² | - |
| 1777647734 | 15.56° C | 53% | 1019.6 hPa | 0 mm | - | 600 W/m² | - |
| 1777647431 | 15.56° C | 52% | 1019.7 hPa | 0 mm | - | 587 W/m² | - |
| 1777647129 | 15.56° C | 52% | 1019.5 hPa | 0 mm | - | 577 W/m² | - |
| 1777646825 | 15° C | 54% | 1019.7 hPa | 0 mm | - | 564 W/m² | - |
| 1777646520 | 15.56° C | 54% | 1019.7 hPa | 0 mm | - | 553 W/m² | - |
| 1777646216 | 15° C | 55% | 1019.6 hPa | 0 mm | - | 541 W/m² | - |
| 1777645914 | 15° C | 59% | 1019.5 hPa | 0 mm | - | 527 W/m² | - |
| 1777645611 | 14.44° C | 56% | 1019.8 hPa | 0 mm | - | 516 W/m² | - |
| 1777645307 | 14.44° C | 59% | 1019.7 hPa | 0 mm | - | 504 W/m² | - |
| 1777645003 | 14.44° C | 58% | 1019.8 hPa | 0 mm | - | 494 W/m² | - |
| 1777644701 | 14.44° C | 59% | 1019.6 hPa | 0 mm | - | 484 W/m² | - |
| 1777644396 | 13.89° C | 58% | 1019.5 hPa | 0 mm | - | 470 W/m² | - |
| 1777644094 | 13.89° C | 61% | 1019.9 hPa | 0 mm | - | 456 W/m² | - |
| 1777643790 | 13.33° C | 63% | 1019.8 hPa | 0 mm | - | 441 W/m² | - |
* Rain latest hour (hover to see other rain measurements)
** Current wind speed in m/s (hover to see current wind gust speed)